Location: *
(17.3280°S, 114.7300°W)
Time: 07:24:46
(UTC+00:00)

Cosmos 1703 - Pass Details

Date: 05 August 2020
Orbit: 523 x 540 km, 82.5° (Epoch: 20 September)

Event Time Altitude Azimuth Distance (km) Brightness Sun altitude
Rises 12:38:15 0° 345° (NNW) 2,668 6.8 -20.4°
Reaches altitude 10° 12:40:27 10° 338° (NNW) 1,782 5.8 -19.9°
Enters shadow 12:42:58 34° 313° (NW) 902 4.1 -19.3°
Exits shadow 12:49:36 - 185° (S) 2,432 6.4 -17.7°
Sets 12:50:14 0° 184° (S) 2,686 6.7 -17.6°
